QPF
0.00 0.00 0.00 0.01 0.00 0.00 0.01 0.00 0.00 0.01 0.00 0.00 0.00 0.00 0.00 0.00 0.00 0.00 0.00 0.00 0.00 0.00 0.00 0.00 0.00 0.00 0.00 0.00 0.00 0.00 0.00 0.00 0.00 0.00 0.00 0.00 0.00 0.00 0.00 0.00 0.00 0.00 0.00
0.00 0.00 0.01 0.03 0.05 0.04 0.04 0.04 0.02 0.01 0.03 0.02 0.00 0.00 0.00 0.00 0.00 0.00 0.00 0.00 0.00 0.00 0.00 0.00 0.00 0.00 0.00 0.00 0.00 0.00 0.00 0.00 0.00 0.00 0.00 0.00 0.00 0.00 0.00 0.00 0.00 0.00 0.00
0.00 0.01 0.01 0.02 0.05 0.04 0.04 0.06 0.09 0.06 0.04 0.00 0.00 0.00 0.00 0.00 0.00 0.00 0.00 0.00 0.00 0.00 0.00 0.00 0.00 0.00 0.00 0.00 0.00 0.00 0.00 0.00 0.00 0.00 0.00 0.01 0.00 0.00 0.01 0.00 0.00 0.00 0.00
0.00 0.03 0.09 0.02 0.08 0.04 0.03 0.01 0.01 0.04 0.03 0.00 0.00 0.00 0.00 0.00 0.00 0.00 0.00 0.00 0.00 0.00 0.00 0.00 0.00 0.00 0.00 0.00 0.00 0.00 0.00 0.00 0.00 0.00 0.00 0.00 0.00 0.00 0.00 0.01 0.00 0.00 0.00
0.00 0.01 0.08 0.03 0.07 0.06 0.01 0.06 0.05 0.02 0.01 0.00 0.00 0.00 0.00 0.00 0.00 0.00 0.00 0.00 0.00 0.00 0.00 0.00 0.00 0.00 0.00 0.00 0.00 0.00 0.00 0.00 0.00 0.00 0.00 0.00 0.00 0.00 0.00 0.00 0.00 0.00 0.00
0.00 0.03 0.03 0.01 0.02 0.03 0.00 0.02 0.05 0.00 0.00 0.00 0.00 0.00 0.00 0.00 0.00 0.00 0.00 0.00 0.00 0.00 0.00 0.00 0.00 0.00 0.00 0.00 0.00 0.00 0.00 0.00 0.00 0.00 0.00 0.00 0.00 0.00 0.00 0.00 0.00 0.00 0.00
0.00 0.00 0.03 0.00 0.00 0.01 0.00 0.02 0.05 0.00 0.00 0.00 0.00 0.00 0.00 0.00 0.00 0.00 0.00 0.00 0.00 0.00 0.00 0.00 0.00 0.00 0.00 0.00 0.00 0.00 0.00 0.00 0.00 0.00 0.00 0.00 0.00 0.00 0.00 0.00 0.00 0.00 0.00
0.00 0.00 0.00 0.00 0.00 0.02 0.02 0.04 0.07 0.00 0.00 0.00 0.00 0.00 0.00 0.00 0.00 0.00 0.00 0.00 0.00 0.00 0.00 0.00 0.00 0.00 0.00 0.00 0.00 0.00 0.00 0.00 0.00 0.00 0.00 0.00 0.00 0.00 0.00 0.00 0.00 0.00 0.00
0.00 0.00 0.02 0.03 0.03 0.01 0.02 0.08 0.09 0.00 0.00 0.00 0.00 0.00 0.00 0.00 0.00 0.00 0.00 0.00 0.00 0.00 0.00 0.00 0.00 0.00 0.00 0.00 0.00 0.00 0.00 0.00 0.00 0.00 0.00 0.00 0.00 0.00 0.00 0.00 0.00 0.00 0.00
0.00 0.00 0.02 0.08 0.13 0.10 0.06 0.10 0.06 0.00 0.00 0.00 0.00 0.00 0.00 0.00 0.00 0.00 0.00 0.00 0.00 0.00 0.00 0.00 0.00 0.00 0.00 0.00 0.00 0.00 0.00 0.00 0.00 0.00 0.00 0.00 0.00 0.00 0.00 0.00 0.00 0.00 0.00
0.00 0.00 0.01 0.01 0.06 0.10 0.11 0.05 0.05 0.00 0.00 0.00 0.00 0.00 0.00 0.00 0.00 0.00 0.00 0.00 0.00 0.00 0.00 0.00 0.00 0.00 0.00 0.00 0.00 0.00 0.00 0.00 0.00 0.00 0.00 0.00 0.00 0.00 0.00 0.00 0.00 0.00 0.00
0.00 0.00 0.00 0.00 0.03 0.06 0.08 0.13 0.04 0.00 0.01 0.00 0.00 0.00 0.00 0.00 0.00 0.00 0.00 0.00 0.00 0.00 0.00 0.00 0.00 0.00 0.00 0.00 0.00 0.00 0.00 0.00 0.00 0.00 0.00 0.00 0.00 0.00 0.00 0.00 0.00 0.00 0.00
0.00 0.00 0.00 0.00 0.00 0.05 0.12 0.09 0.02 0.00 0.00 0.00 0.00 0.00 0.00 0.00 0.00 0.00 0.00 0.00 0.00 0.00 0.00 0.00 0.00 0.00 0.00 0.00 0.00 0.00 0.00 0.00 0.00 0.00 0.00 0.00 0.00 0.00 0.00 0.00 0.00 0.00 0.00
0.00 0.00 0.00 0.00 0.00 0.00 0.03 0.07 0.02 0.00 0.00 0.00 0.00 0.00 0.00 0.00 0.00 0.00 0.00 0.00 0.00 0.00 0.00 0.00 0.00 0.00 0.00 0.00 0.00 0.00 0.00 0.00 0.00 0.00 0.00 0.00 0.00 0.00 0.00 0.00 0.00 0.00 0.00
0.01 0.00 0.00 0.00 0.00 0.00 0.00 0.00 0.00 0.01 0.01 0.00 0.00 0.00 0.00 0.01 0.01 0.01 0.00 0.00 0.01 0.00 0.00 0.00 0.00 0.00 0.00 0.00 0.00 0.00 0.00 0.00 0.00 0.00 0.00 0.00 0.00 0.00 0.00 0.00 0.00 0.00 0.00
0.02 0.01 0.00 0.00 0.00 0.00 0.00 0.00 0.00 0.00 0.00 0.00 0.00 0.00 0.00 0.00 0.00 0.01 0.00 0.00 0.00 0.00 0.00 0.00 0.00 0.00 0.00 0.00 0.00 0.00 0.00 0.00 0.00 0.00 0.00 0.00 0.00 0.00 0.00 0.00 0.00 0.00 0.00
0.01 0.01 0.00 0.00 0.01 0.01 0.01 0.01 0.00 0.00 0.00 0.00 0.00 0.00 0.00 0.00 0.00 0.00 0.00 0.00 0.00 0.00 0.00 0.00 0.00 0.00 0.00 0.00 0.00 0.00 0.00 0.00 0.00 0.00 0.00 0.00 0.00 0.00 0.00 0.00 0.00 0.00 0.00
0.00 0.00 0.00 0.00 0.00 0.00 0.00 0.00 0.00 0.00 0.00 0.00 0.00 0.00 0.00 0.00 0.00 0.00 0.00 0.00 0.00 0.01 0.00 0.00 0.00 0.00 0.00 0.00 0.00 0.00 0.00 0.00 0.00 0.00 0.00 0.00 0.00 0.00 0.00 0.00 0.00 0.00 0.00
0.00 0.00 0.00 0.00 0.00 0.00 0.00 0.00 0.00 0.00 0.00 0.00 0.00 0.00 0.00 0.00 0.00 0.00 0.00 0.00 0.00 0.00 0.00 0.00 0.00 0.00 0.00 0.00 0.00 0.00 0.00 0.00 0.00 0.00 0.00 0.00 0.00 0.00 0.00 0.00 0.00 0.00 0.00
0.00 0.00 0.00 0.00 0.00 0.00 0.00 0.00 0.00 0.00 0.00 0.00 0.00 0.01 0.01 0.01 0.01 0.01 0.00 0.00 0.00 0.01 0.01 0.00 0.00 0.00 0.00 0.00 0.00 0.00 0.00 0.00 0.00 0.00 0.00 0.00 0.00 0.00 0.00 0.00 0.00 0.02 0.02
0.00 0.00 0.00 0.00 0.00 0.00 0.00 0.00 0.00 0.00 0.00 0.00 0.00 0.00 0.00 0.00 0.00 0.00 0.00 0.00 0.01 0.04 0.05 0.06 0.04 0.01 0.00 0.00 0.00 0.00 0.00 0.00 0.00 0.00 0.00 0.00 0.00 0.00 0.00 0.00 0.00 0.01 0.04
0.00 0.00 0.00 0.00 0.00 0.00 0.00 0.00 0.00 0.00 0.00 0.00 0.00 0.00 0.00 0.00 0.00 0.00 0.00 0.00 0.00 0.00 0.03 0.09 0.11 0.06 0.01 0.00 0.00 0.00 0.00 0.00 0.00 0.00 0.00 0.00 0.00 0.00 0.00 0.01 0.03 0.01 0.00
0.00 0.00 0.00 0.00 0.00 0.00 0.00 0.00 0.00 0.00 0.00 0.00 0.00 0.00 0.00 0.00 0.00 0.00 0.00 0.00 0.00 0.00 0.02 0.08 0.13 0.06 0.01 0.01 0.01 0.01 0.02 0.04 0.00 0.00 0.00 0.00 0.00 0.00 0.00 0.01 0.02 0.03 0.01
0.00 0.00 0.00 0.00 0.00 0.00 0.00 0.00 0.00 0.00 0.00 0.00 0.00 0.00 0.00 0.00 0.00 0.00 0.00 0.00 0.01 0.00 0.01 0.05 0.08 0.08 0.04 0.04 0.03 0.02 0.01 0.02 0.02 0.03 0.01 0.00 0.00 0.00 0.00 0.00 0.01 0.03 0.03
0.00 0.00 0.00 0.00 0.00 0.00 0.00 0.00 0.00 0.00 0.00 0.00 0.00 0.00 0.00 0.00 0.00 0.01 0.02 0.03 0.03 0.03 0.03 0.06 0.07 0.06 0.06 0.06 0.07 0.09 0.11 0.05 0.03 0.04 0.06 0.05 0.00 0.00 0.00 0.00 0.00 0.02 0.03
0.00 0.00 0.00 0.00 0.00 0.00 0.00 0.00 0.00 0.00 0.01 0.01 0.02 0.01 0.00 0.00 0.00 0.02 0.03 0.04 0.05 0.06 0.07 0.07 0.08 0.07 0.07 0.05 0.05 0.11 0.10 0.09 0.10 0.07 0.07 0.07 0.04 0.00 0.00 0.00 0.00 0.02 0.02
MSLP
1011.22 1013.28 1014.55 1014.85 1015.04 1015.18 1015.35 1015.51 1015.63 1015.76 1015.84 1015.98 1016.15 1016.39 1016.69 1016.95 1017.10 1017.14 1017.16 1017.18 1017.19 1017.18 1017.25 1017.29 1017.35 1017.30 1017.30 1017.33 1017.25 1017.13 1016.91 1016.70 1016.39 1016.22 1016.13 1016.08 1016.34 1016.57 1016.61 1016.50 1016.46 1016.14 1016.74
1012.03 1013.49 1014.92 1015.19 1015.46 1015.59 1015.69 1015.82 1016.01 1016.15 1016.31 1016.43 1016.69 1016.97 1017.30 1017.43 1017.56 1017.63 1017.58 1017.55 1017.65 1017.62 1017.64 1017.69 1017.70 1017.68 1017.65 1017.65 1017.55 1017.39 1017.12 1016.79 1016.46 1016.16 1016.22 1016.39 1016.32 1016.72 1016.80 1016.79 1016.78 1016.79 1016.90
1012.99 1013.98 1014.71 1015.42 1015.61 1015.85 1015.95 1016.28 1016.46 1016.66 1016.77 1016.92 1017.13 1017.31 1017.55 1017.70 1017.77 1017.94 1018.02 1017.98 1018.02 1018.03 1018.06 1018.17 1018.18 1018.08 1018.04 1017.97 1017.94 1017.85 1017.54 1017.03 1016.53 1015.98 1015.25 1016.13 1015.90 1016.73 1016.99 1017.06 1017.06 1017.12 1017.19
1013.35 1014.22 1014.92 1015.88 1016.01 1016.20 1016.37 1016.56 1016.75 1017.10 1017.28 1017.55 1017.70 1017.90 1017.97 1017.99 1017.99 1018.08 1018.20 1018.33 1018.36 1018.39 1018.34 1018.33 1018.45 1018.44 1018.39 1018.33 1018.24 1018.11 1017.98 1017.53 1016.91 1016.11 1014.89 1014.89 1015.67 1017.24 1017.40 1017.49 1017.41 1017.52 1017.56
1013.83 1014.62 1015.76 1016.25 1016.52 1016.63 1016.79 1016.99 1017.12 1017.36 1017.63 1017.97 1018.14 1018.30 1018.52 1018.58 1018.50 1018.48 1018.52 1018.55 1018.63 1018.68 1018.75 1018.70 1018.68 1018.66 1018.70 1018.59 1018.54 1018.52 1018.22 1017.80 1017.01 1016.36 1015.86 1015.97 1016.21 1017.51 1017.66 1017.80 1017.77 1017.85 1017.91
1013.42 1014.91 1016.36 1016.69 1016.89 1016.88 1017.06 1017.34 1017.52 1017.76 1018.08 1018.34 1018.44 1018.55 1018.69 1018.86 1019.02 1018.98 1018.94 1018.88 1018.87 1018.92 1018.89 1019.03 1019.01 1018.97 1018.94 1018.83 1018.73 1018.77 1018.55 1018.12 1017.33 1015.95 1016.46 1016.56 1016.92 1017.85 1018.00 1018.00 1018.12 1018.15 1018.19
1013.87 1015.17 1016.31 1017.00 1017.13 1017.22 1017.42 1017.67 1017.72 1018.04 1018.33 1018.54 1018.75 1018.83 1018.90 1018.89 1019.04 1019.24 1019.26 1019.24 1019.21 1019.17 1019.14 1019.20 1019.24 1019.35 1019.30 1019.26 1019.08 1018.93 1018.71 1018.25 1017.26 1016.21 1016.65 1016.87 1018.10 1018.27 1018.35 1018.46 1018.35 1018.33 1018.33
1014.15 1015.04 1016.06 1017.11 1017.39 1017.53 1017.77 1018.03 1018.27 1018.41 1018.61 1018.76 1018.91 1019.00 1019.02 1019.08 1019.09 1019.27 1019.37 1019.37 1019.45 1019.53 1019.43 1019.49 1019.55 1019.49 1019.42 1019.39 1019.28 1019.20 1018.85 1018.26 1016.99 1016.50 1016.92 1017.04 1018.39 1018.63 1018.75 1018.60 1018.43 1018.40 1018.38
1015.58 1015.82 1016.04 1016.49 1017.30 1017.61 1018.05 1018.36 1018.59 1018.73 1018.87 1018.98 1019.22 1019.23 1019.15 1019.21 1019.29 1019.35 1019.40 1019.53 1019.60 1019.63 1019.68 1019.72 1019.75 1019.75 1019.62 1019.46 1019.30 1019.16 1018.93 1018.27 1017.56 1016.55 1016.83 1017.35 1018.56 1018.77 1018.91 1018.72 1018.54 1018.35 1018.21
1015.61 1015.53 1015.95 1017.02 1016.78 1017.42 1017.85 1018.45 1018.62 1018.82 1019.11 1019.25 1019.43 1019.45 1019.42 1019.42 1019.47 1019.46 1019.55 1019.61 1019.72 1019.86 1019.90 1019.97 1019.90 1019.73 1019.55 1019.30 1019.20 1018.92 1018.60 1017.94 1017.07 1016.53 1016.81 1018.31 1018.74 1018.92 1018.86 1018.78 1018.59 1018.43 1018.15
1016.28 1016.40 1016.17 1017.00 1017.48 1017.78 1018.17 1018.59 1018.76 1019.04 1019.33 1019.59 1019.64 1019.73 1019.50 1018.62 1018.90 1019.16 1019.30 1019.51 1019.76 1019.90 1019.99 1020.07 1019.98 1019.70 1019.19 1018.99 1019.06 1018.65 1018.14 1017.15 1017.01 1016.72 1016.92 1018.61 1018.85 1018.98 1018.93 1018.74 1018.57 1018.43 1018.22
1017.42 1017.54 1016.97 1017.33 1017.28 1017.30 1017.69 1018.40 1018.48 1018.84 1019.12 1019.27 1018.84 1019.06 1018.96 1017.87 1018.03 1018.17 1018.91 1019.27 1019.41 1019.66 1019.87 1019.89 1019.65 1019.23 1019.21 1018.01 1017.90 1017.83 1017.48 1017.44 1017.28 1017.15 1017.61 1018.48 1018.68 1018.94 1018.95 1018.72 1018.55 1018.41 1018.17
1018.32 1018.30 1017.97 1018.01 1017.79 1018.06 1018.32 1018.52 1019.07 1019.40 1019.74 1019.68 1019.10 1018.68 1018.52 1018.09 1018.03 1017.97 1017.72 1018.28 1018.73 1019.08 1018.72 1019.18 1018.95 1019.02 1018.73 1018.68 1018.50 1018.09 1017.94 1017.67 1017.60 1017.32 1017.89 1018.41 1018.75 1018.84 1018.83 1018.69 1018.42 1018.40 1018.29
1019.09 1019.07 1018.70 1018.46 1018.34 1018.21 1019.02 1019.06 1019.21 1019.05 1019.41 1019.52 1019.66 1019.13 1019.12 1018.39 1018.07 1017.95 1017.50 1017.83 1018.35 1019.13 1019.05 1018.92 1019.15 1019.36 1019.50 1019.22 1018.73 1018.30 1018.27 1018.02 1017.80 1017.87 1017.79 1018.33 1018.64 1018.89 1018.37 1018.27 1018.42 1018.34 1018.40
1019.97 1019.94 1019.79 1019.63 1019.65 1019.36 1019.38 1019.58 1019.77 1020.11 1020.15 1020.16 1020.17 1020.29 1020.34 1020.17 1019.93 1019.52 1019.33 1018.95 1019.29 1019.17 1020.03 1019.76 1020.34 1020.36 1020.26 1019.78 1018.91 1018.50 1018.59 1018.36 1017.94 1017.90 1017.71 1018.18 1018.50 1018.81 1018.57 1018.39 1018.31 1018.33 1018.55
1020.66 1020.68 1020.77 1020.53 1020.52 1020.36 1020.34 1020.18 1020.23 1020.48 1020.54 1020.95 1021.05 1021.14 1021.16 1021.00 1021.04 1020.56 1020.18 1019.90 1020.52 1021.00 1021.33 1021.67 1021.54 1021.36 1020.69 1019.93 1019.01 1018.35 1018.57 1018.46 1018.10 1017.98 1017.73 1017.50 1018.31 1018.58 1018.65 1018.73 1018.57 1018.55 1018.52
1021.91 1021.79 1021.47 1021.39 1021.46 1021.50 1021.64 1021.27 1021.14 1021.17 1020.83 1021.18 1021.50 1021.82 1021.62 1021.60 1021.53 1021.11 1021.18 1021.06 1021.13 1021.20 1021.24 1021.65 1021.81 1021.75 1021.20 1019.74 1019.36 1018.63 1018.39 1018.16 1018.11 1017.69 1017.83 1017.15 1017.63 1018.24 1018.43 1018.67 1018.71 1018.77 1018.62
1022.74 1022.44 1022.11 1021.61 1021.44 1021.44 1021.55 1021.61 1021.44 1021.48 1021.43 1021.55 1021.64 1022.03 1022.12 1022.09 1021.85 1021.73 1021.43 1021.38 1021.16 1021.15 1021.30 1021.42 1021.53 1021.45 1020.91 1020.66 1020.09 1019.89 1019.35 1018.03 1017.85 1017.95 1017.65 1017.52 1017.24 1017.55 1018.28 1018.73 1018.67 1018.73 1018.77
1022.85 1022.40 1022.26 1022.12 1021.73 1021.49 1021.29 1020.95 1020.56 1020.76 1020.53 1021.03 1021.40 1021.56 1021.92 1021.95 1021.87 1021.72 1021.50 1021.36 1020.98 1021.24 1021.01 1021.20 1021.28 1020.97 1020.90 1020.49 1020.29 1019.67 1018.79 1017.89 1017.53 1017.39 1017.57 1017.87 1017.58 1017.82 1018.14 1018.62 1018.64 1018.65 1018.88
1023.00 1022.92 1022.67 1022.45 1022.37 1021.62 1021.23 1020.90 1020.63 1020.35 1020.14 1020.02 1020.52 1021.13 1021.14 1021.16 1020.80 1020.74 1020.36 1020.21 1020.37 1020.24 1020.53 1020.70 1020.68 1020.67 1020.41 1020.28 1020.05 1018.63 1017.72 1017.39 1017.25 1017.49 1017.53 1017.47 1017.32 1017.67 1017.86 1018.09 1018.47 1018.64 1019.02
1022.61 1022.80 1022.77 1022.45 1022.54 1022.15 1021.54 1021.16 1021.01 1020.67 1020.35 1020.01 1020.63 1021.00 1020.77 1021.01 1020.37 1020.14 1019.46 1018.97 1019.11 1019.30 1019.45 1019.80 1020.01 1019.86 1019.58 1019.51 1018.86 1017.82 1017.20 1017.07 1017.55 1017.68 1017.78 1017.74 1017.81 1017.92 1018.08 1018.47 1018.47 1018.53 1018.78
1022.58 1022.35 1022.80 1022.54 1022.68 1022.50 1022.11 1021.63 1021.59 1021.13 1020.35 1020.17 1020.49 1020.37 1021.06 1020.94 1020.81 1020.59 1020.13 1019.97 1019.28 1018.93 1018.76 1018.91 1019.27 1019.39 1018.85 1018.51 1018.40 1017.63 1017.08 1017.46 1017.68 1017.60 1017.54 1017.86 1018.09 1018.03 1018.46 1018.50 1018.86 1018.87 1018.30
1022.17 1022.32 1022.53 1022.61 1022.87 1022.66 1022.73 1021.79 1021.58 1020.98 1020.19 1020.67 1020.72 1021.19 1021.02 1020.77 1020.88 1020.63 1020.17 1019.86 1019.32 1019.00 1018.73 1018.68 1018.95 1018.96 1018.34 1017.94 1018.10 1017.88 1017.73 1017.37 1017.33 1017.79 1017.89 1017.62 1018.07 1017.93 1017.84 1017.89 1018.39 1018.72 1018.94
1022.02 1022.19 1022.54 1022.88 1022.91 1022.52 1022.42 1022.08 1022.04 1021.58 1021.42 1021.59 1021.42 1021.20 1020.91 1020.77 1020.70 1020.36 1020.11 1019.62 1019.38 1019.13 1018.65 1018.70 1018.73 1018.85 1018.65 1018.19 1018.21 1017.91 1017.95 1018.22 1017.72 1017.92 1017.68 1018.01 1018.13 1018.03 1018.06 1017.47 1017.67 1018.33 1018.75
1021.85 1022.07 1022.36 1022.61 1022.63 1022.56 1022.73 1022.54 1022.56 1022.44 1022.22 1021.73 1021.45 1021.40 1020.98 1020.63 1020.32 1019.65 1020.10 1019.99 1019.78 1019.37 1019.09 1018.92 1018.83 1018.85 1018.80 1018.75 1018.51 1018.74 1018.86 1018.70 1018.55 1018.51 1018.27 1018.46 1018.04 1017.76 1017.56 1017.23 1017.09 1017.50 1018.45
1022.20 1022.24 1022.71 1022.50 1022.80 1022.90 1022.94 1022.92 1022.71 1022.54 1022.42 1022.04 1021.84 1021.34 1020.89 1020.44 1019.98 1020.06 1019.95 1020.03 1019.70 1019.56 1019.30 1019.09 1019.02 1018.88 1018.81 1018.75 1018.65 1018.93 1019.00 1018.97 1018.86 1018.88 1018.77 1018.70 1018.32 1017.88 1017.49 1017.20 1017.34 1017.98 1018.35
Thickness
5782 5767 5756 5752 5750 5749 5747 5746 5746 5745 5745 5745 5744 5742 5740 5738 5737 5738 5739 5738 5738 5739 5740 5739 5739 5740 5741 5740 5741 5742 5744 5745 5748 5750 5751 5752 5750 5748 5748 5750 5751 5752 5749
5776 5763 5752 5749 5746 5746 5743 5743 5742 5741 5739 5738 5736 5734 5731 5732 5730 5729 5730 5731 5730 5730 5731 5732 5732 5733 5734 5734 5736 5738 5741 5743 5746 5748 5747 5747 5748 5744 5743 5744 5745 5745 5745
5765 5756 5750 5745 5744 5742 5740 5736 5734 5733 5732 5731 5729 5728 5727 5726 5726 5724 5723 5724 5724 5725 5725 5724 5724 5726 5727 5729 5730 5730 5733 5738 5742 5746 5752 5745 5746 5741 5739 5739 5740 5740 5740
5762 5753 5747 5740 5738 5736 5734 5731 5729 5725 5723 5722 5722 5720 5719 5719 5719 5719 5718 5717 5717 5717 5719 5721 5719 5720 5722 5723 5724 5725 5725 5728 5733 5741 5748 5748 5746 5733 5732 5731 5733 5733 5734
5758 5750 5740 5736 5732 5730 5729 5726 5724 5721 5718 5716 5715 5714 5711 5710 5711 5712 5711 5710 5710 5711 5711 5712 5713 5713 5713 5715 5715 5715 5718 5721 5727 5731 5735 5733 5735 5724 5725 5724 5725 5725 5726
5761 5746 5734 5730 5727 5725 5723 5720 5718 5715 5713 5711 5710 5707 5705 5703 5702 5701 5702 5704 5705 5705 5707 5705 5705 5706 5707 5708 5709 5709 5711 5715 5719 5728 5724 5723 5725 5717 5717 5717 5717 5717 5718
5756 5744 5733 5726 5723 5721 5717 5713 5713 5710 5707 5705 5701 5700 5699 5699 5697 5696 5696 5696 5697 5698 5699 5699 5700 5700 5701 5700 5701 5703 5704 5708 5713 5722 5717 5714 5710 5707 5707 5707 5709 5710 5710
5753 5743 5733 5723 5719 5715 5711 5705 5702 5701 5699 5697 5696 5696 5695 5694 5695 5692 5691 5691 5690 5690 5692 5692 5692 5692 5692 5692 5693 5695 5698 5703 5710 5713 5708 5709 5700 5698 5697 5699 5700 5702 5703
5741 5736 5731 5724 5716 5710 5703 5698 5695 5692 5691 5690 5688 5689 5690 5689 5689 5688 5687 5686 5685 5685 5684 5684 5683 5683 5684 5684 5686 5688 5689 5694 5699 5705 5702 5700 5692 5690 5688 5690 5692 5694 5696
5738 5735 5729 5718 5716 5707 5702 5695 5692 5688 5686 5683 5682 5684 5684 5684 5683 5681 5680 5680 5679 5677 5677 5676 5677 5678 5678 5680 5681 5683 5685 5690 5694 5698 5695 5685 5683 5681 5681 5682 5683 5685 5689
5733 5728 5726 5716 5709 5704 5698 5693 5688 5685 5681 5678 5677 5677 5679 5684 5680 5677 5678 5675 5672 5671 5670 5668 5669 5671 5674 5676 5676 5678 5682 5687 5686 5687 5685 5674 5674 5673 5672 5674 5676 5678 5680
5717 5716 5718 5712 5708 5705 5699 5691 5688 5685 5681 5676 5680 5678 5676 5684 5681 5678 5675 5670 5669 5666 5663 5663 5664 5665 5667 5670 5672 5675 5677 5676 5676 5674 5673 5667 5667 5665 5664 5666 5668 5670 5671
5709 5707 5707 5704 5702 5698 5692 5687 5681 5677 5673 5671 5673 5676 5676 5678 5675 5674 5673 5670 5665 5661 5663 5660 5658 5658 5660 5659 5660 5664 5664 5666 5664 5666 5663 5659 5658 5657 5657 5658 5661 5661 5661
5700 5698 5698 5696 5694 5691 5684 5681 5677 5677 5670 5667 5665 5669 5667 5670 5669 5669 5670 5665 5660 5652 5655 5652 5650 5646 5644 5646 5651 5654 5654 5654 5655 5653 5653 5652 5649 5647 5650 5651 5651 5652 5651
5688 5686 5685 5682 5679 5678 5675 5672 5668 5665 5662 5659 5657 5654 5650 5651 5649 5650 5650 5648 5645 5642 5637 5637 5632 5630 5630 5634 5641 5644 5642 5642 5645 5644 5643 5646 5640 5636 5637 5639 5641 5642 5641
5679 5675 5672 5671 5668 5666 5663 5661 5657 5653 5650 5646 5642 5638 5636 5634 5632 5633 5634 5633 5628 5622 5619 5616 5617 5616 5620 5624 5629 5634 5632 5632 5633 5633 5634 5635 5632 5628 5627 5626 5627 5627 5628
5662 5661 5661 5658 5654 5650 5647 5645 5642 5639 5637 5633 5629 5624 5623 5621 5619 5619 5617 5616 5615 5612 5612 5607 5605 5604 5607 5614 5616 5621 5622 5623 5621 5624 5623 5626 5623 5621 5618 5615 5615 5615 5616
5649 5648 5647 5648 5646 5643 5638 5633 5631 5627 5625 5621 5617 5612 5609 5607 5607 5605 5605 5603 5603 5602 5600 5597 5594 5594 5597 5597 5599 5599 5602 5611 5612 5610 5614 5614 5613 5607 5609 5605 5604 5603 5603
5641 5641 5638 5635 5635 5633 5631 5629 5629 5624 5621 5613 5608 5604 5600 5598 5596 5596 5595 5594 5594 5591 5591 5587 5584 5584 5583 5586 5584 5587 5594 5599 5601 5601 5601 5599 5600 5597 5591 5592 5592 5591 5589
5632 5628 5626 5625 5621 5623 5622 5620 5619 5617 5615 5612 5606 5598 5595 5591 5591 5590 5590 5589 5587 5585 5582 5579 5576 5573 5574 5573 5573 5584 5590 5593 5591 5588 5587 5587 5587 5584 5579 5578 5577 5578 5575
5625 5620 5617 5616 5612 5609 5610 5609 5606 5604 5603 5602 5594 5589 5587 5581 5583 5581 5584 5585 5583 5580 5577 5572 5568 5566 5567 5567 5571 5579 5583 5584 5577 5572 5571 5572 5570 5565 5564 5561 5560 5562 5563
5616 5613 5606 5606 5600 5599 5596 5597 5594 5592 5593 5589 5584 5580 5574 5572 5569 5566 5568 5567 5569 5570 5571 5569 5563 5558 5560 5563 5559 5563 5562 5559 5559 5561 5560 5555 5552 5549 5548 5547 5543 5542 5549
5611 5605 5599 5595 5589 5588 5583 5585 5583 5582 5583 5575 5570 5563 5560 5558 5555 5554 5554 5554 5556 5557 5558 5558 5555 5552 5554 5557 5554 5549 5543 5544 5547 5546 5541 5541 5537 5537 5538 5536 5531 5530 5528
5605 5599 5592 5585 5580 5578 5574 5571 5567 5564 5559 5554 5551 5550 5547 5544 5542 5540 5541 5541 5540 5541 5545 5543 5542 5541 5543 5543 5543 5543 5540 5536 5534 5529 5534 5529 5523 5523 5522 5524 5523 5517 5516
5598 5592 5586 5579 5574 5569 5561 5558 5551 5545 5542 5541 5538 5532 5532 5530 5530 5532 5526 5524 5524 5526 5527 5528 5529 5529 5531 5531 5533 5530 5526 5526 5527 5523 5520 5516 5518 5517 5517 5517 5516 5513 5504
5588 5583 5573 5569 5562 5556 5549 5543 5539 5534 5529 5526 5522 5522 5520 5520 5519 5516 5513 5510 5511 5511 5513 5514 5515 5518 5520 5522 5524 5522 5520 5518 5518 5516 5514 5511 5510 5511 5511 5511 5506 5499 5494